Location: El Mouella
(16.4949°N, 9.1594°W)
Time: 15:04:39
(UTC+00:00)

Okean 3 - Pass Details

Date: 02 June 2020
Orbit: 575 x 602 km, 82.5° (Epoch: 05 July)

Event Time Altitude Azimuth Distance (km) Brightness Sun altitude
Exits shadow 20:06:44 20° 136° (SE) 1,378 4.8 -13.8°
Maximum altitude 20:08:44 30° 92° (E) 1,076 4.3 -14.2°
Drops below altitude 10° 20:12:31 10° 30° (NNE) 1,941 6.1 -15.0°
Sets 20:14:55 0° 20° (NNE) 2,844 7.1 -15.5°
